Mexia Limestone County Airpor, TX

12:47 AM CDT on October 23, 2019 (GMT -0500)
Mexia-Limestone County

Weather History for KLXY - August, 2019

Change the Weather History Date:

Sunday, August 25, 2019

  Actual Average (KACT) Record (KACT)
Temperature  
Mean Temperature 86 °F -  
Max Temperature 97 °F 93 °F 104 °F (1990)
Min Temperature 74 °F 71 °F 62 °F (1917)
Cooling Degree Days 20    
Growing Degree Days 36 (Base 50)    
Moisture  
Dew Point 73 °F    
Average Humidity 70    
Maximum Humidity 99    
Minimum Humidity 41    
Precipitation  
Precipitation 0.00 in - - ()
Sea Level Pressure  
Sea Level Pressure 29.83 in    
Wind  
Wind Speed 7 mph (South)    
Max Wind Speed 15 mph    
Max Gust Speed 22 mph    
Visibility 10 miles    
Events      
Averages and records for this station are not official NWS values.
T = Trace of Precipitation, MM = Missing Value Source: NWS Daily Summary

Daily Weather History Graph

Daily Weather History Graph

Search for Another Location

Airport or City:

Astronomy

Aug. 25, 2019 Rise Set
Actual Time 6:57 AM CDT 7:58 PM CDT
Civil Twilight 6:32 AM CDT 8:23 PM CDT
Nautical Twilight 6:02 AM CDT 8:53 PM CDT
Astronomical Twilight 5:31 AM CDT 9:23 PM CDT
Moon 1:44 AM CDT (8/25) 4:08 PM CDT (8/25)
Length of Visible Light 13h 51m
Length of Day
13h 01m
Waning Crescent, 29% of the Moon is Illuminated
Aug 25
Waning Crescent
Aug 30
New
Sep 5
First Quarter
Sep 13
Full
Sep 21
Last Quarter

Hourly Weather History & Observations

Time (CDT) Temp. Heat Index Dew Point Humidity Pressure Visibility Wind Dir Wind Speed Gust Speed Precip Events Conditions
12:15 AM 79.7 °F - 71.1 °F 75% 29.89 in 10.0 mi SSE 6.9 mph - N/A   Clear
12:35 AM 79.7 °F - 71.4 °F 76% 29.89 in 10.0 mi SSE 9.2 mph - N/A   Clear
12:55 AM 79.7 °F - 71.6 °F 76% 29.89 in 10.0 mi SSE 8.1 mph - N/A   Clear
1:15 AM 79.7 °F - 72.3 °F 78% 29.88 in 10.0 mi South 9.2 mph - N/A   Clear
1:35 AM 79.2 °F - 72.5 °F 80% 29.88 in 10.0 mi SSE 5.8 mph - N/A   Clear
1:55 AM 78.8 °F - 72.7 °F 81% 29.87 in 10.0 mi SSE 4.6 mph - N/A   Clear
2:15 AM 78.3 °F - 72.7 °F 83% 29.86 in 10.0 mi South 5.8 mph - N/A   Clear
2:35 AM 77.5 °F - 72.5 °F 84% 29.86 in 10.0 mi South 5.8 mph - N/A   Clear
2:55 AM 77.0 °F - 72.7 °F 86% 29.86 in 10.0 mi South 5.8 mph - N/A   Clear
3:15 AM 76.5 °F - 72.5 °F 87% 29.86 in 10.0 mi South 6.9 mph - N/A   Clear
3:35 AM 76.3 °F - 72.5 °F 88% 29.86 in 10.0 mi South 9.2 mph - N/A   Clear
3:55 AM 76.1 °F - 73.8 °F 92% 29.86 in 10.0 mi South 5.8 mph - N/A   Clear
4:15 AM 76.1 °F - 75.4 °F 98% 29.87 in 10.0 mi SSE 5.8 mph - N/A   Clear
4:35 AM 75.6 °F - 75.2 °F 99% 29.86 in 10.0 mi South 3.5 mph - N/A   Clear
4:55 AM 75.6 °F - 75.2 °F 99% 29.86 in 10.0 mi Calm Calm - N/A   Clear
5:15 AM 75.4 °F - 74.8 °F 98% 29.86 in 10.0 mi South 3.5 mph - N/A   Clear
5:35 AM 75.2 °F - 74.5 °F 98% 29.86 in 10.0 mi South 5.8 mph - N/A   Scattered Clouds
6:15 AM 74.8 °F - 74.3 °F 98% 29.86 in 10.0 mi South 6.9 mph - N/A   Clear
6:35 AM 75.2 °F - 74.5 °F 98% 29.86 in 10.0 mi South 5.8 mph - N/A   Clear
6:55 AM 75.2 °F - 74.5 °F 98% 29.86 in 10.0 mi SW 4.6 mph - N/A   Clear
7:15 AM 75.0 °F - 74.3 °F 98% 29.86 in 10.0 mi Calm Calm - N/A   Clear
7:35 AM 75.2 °F - 74.7 °F 98% 29.87 in 10.0 mi SSW 3.5 mph - N/A   Clear
7:55 AM 76.1 °F - 75.6 °F 98% 29.87 in 10.0 mi SSW 4.6 mph - N/A   Clear
8:15 AM 77.5 °F - 74.5 °F 90% 29.88 in 10.0 mi SW 4.6 mph - N/A   Clear
8:35 AM 78.6 °F - 73.4 °F 84% 29.89 in 10.0 mi SW 6.9 mph - N/A   Clear
8:55 AM 79.9 °F - 72.9 °F 79% 29.89 in 10.0 mi WSW 6.9 mph - N/A   Clear
9:15 AM 81.7 °F 87.1 °F 73.4 °F 76% 29.90 in 10.0 mi WSW 5.8 mph - N/A   Scattered Clouds
9:55 AM 83.7 °F 90.4 °F 73.6 °F 72% 29.90 in 10.0 mi West 8.1 mph - N/A   Scattered Clouds
10:15 AM 85.3 °F 93.0 °F 73.9 °F 69% 29.91 in 10.0 mi West 8.1 mph - N/A   Clear
10:35 AM 85.6 °F 93.4 °F 74.1 °F 68% 29.91 in 10.0 mi WSW 6.9 mph - N/A   Scattered Clouds
10:55 AM 85.1 °F 92.9 °F 74.3 °F 70% 29.90 in 10.0 mi SSW 6.9 mph - N/A   Scattered Clouds
11:15 AM 87.1 °F 95.9 °F 74.7 °F 66% 29.89 in 10.0 mi SSW 6.9 mph - N/A   Scattered Clouds
11:35 AM 87.3 °F 96.3 °F 74.5 °F 66% 29.89 in 10.0 mi SW 4.6 mph - N/A   Scattered Clouds
11:55 AM 88.5 °F 97.8 °F 74.7 °F 63% 29.88 in 10.0 mi SW 3.5 mph - N/A   Clear
12:15 PM 90.5 °F 99.2 °F 73.6 °F 57% 29.87 in 10.0 mi SW 3.5 mph - N/A   Clear
12:35 PM 91.0 °F 100.4 °F 73.9 °F 57% 29.86 in 10.0 mi Calm Calm - N/A   Clear
12:55 PM 91.8 °F 99.1 °F 72.0 °F 52% 29.85 in 10.0 mi WSW 3.5 mph - N/A   Clear
1:35 PM 94.1 °F 102.5 °F 72.1 °F 49% 29.83 in 10.0 mi SSE 6.9 mph - N/A   Clear
1:55 PM 94.1 °F 101.2 °F 70.9 °F 47% 29.82 in 10.0 mi South 3.5 mph - N/A   Scattered Clouds
2:15 PM 94.3 °F 100.4 °F 70.2 °F 45% 29.81 in 10.0 mi Calm Calm - N/A   Clear
2:35 PM 95.0 °F 100.1 °F 68.9 °F 42% 29.81 in 10.0 mi South 6.9 mph - N/A   Clear
2:55 PM 96.1 °F 102.3 °F 69.4 °F 42% 29.79 in 10.0 mi South 4.6 mph - N/A   Clear
3:15 PM 95.9 °F 102.5 °F 69.8 °F 43% 29.79 in 10.0 mi South 6.9 mph - N/A   Clear
3:35 PM 96.3 °F 102.6 °F 69.6 °F 42% 29.78 in 10.0 mi West 3.5 mph - N/A   Scattered Clouds
3:55 PM 96.6 °F 102.7 °F 69.1 °F 41% 29.77 in 10.0 mi West 5.8 mph - N/A   Clear
4:15 PM 95.9 °F 103.2 °F 70.7 °F 44% 29.76 in 10.0 mi South 4.6 mph - N/A   Clear
4:35 PM 96.6 °F 104.0 °F 70.5 °F 43% 29.75 in 10.0 mi ESE 6.9 mph - N/A   Clear
4:55 PM 97.3 °F 104.9 °F 71.1 °F 42% 29.75 in 10.0 mi South 10.4 mph - N/A   Scattered Clouds
5:15 PM 96.6 °F 103.4 °F 70.3 °F 42% 29.75 in 10.0 mi SSE 10.4 mph - N/A   Mostly Cloudy
5:35 PM 96.8 °F 105.1 °F 71.4 °F 44% 29.74 in 10.0 mi South 10.4 mph 17.3 mph N/A   Scattered Clouds
5:55 PM 95.7 °F 103.4 °F 71.2 °F 45% 29.75 in 10.0 mi SSE 10.4 mph - N/A   Scattered Clouds
6:15 PM 95.2 °F 102.9 °F 71.6 °F 46% 29.74 in 10.0 mi SSE 10.4 mph - N/A   Clear
6:35 PM 94.8 °F 102.8 °F 72.0 °F 47% 29.74 in 10.0 mi SSE 8.1 mph - N/A   Clear
6:55 PM 93.7 °F 101.7 °F 71.8 °F 49% 29.74 in 10.0 mi SSE 9.2 mph - N/A   Clear
7:15 PM 92.5 °F 99.6 °F 71.6 °F 50% 29.73 in 10.0 mi SSE 8.1 mph - N/A   Clear
7:35 PM 91.4 °F 98.9 °F 72.0 °F 53% 29.73 in 10.0 mi SSE 8.1 mph - N/A   Clear
7:55 PM 89.8 °F 97.5 °F 72.5 °F 57% 29.74 in 10.0 mi SSE 5.8 mph - N/A   Clear
8:15 PM 88.7 °F 96.2 °F 72.5 °F 59% 29.74 in 10.0 mi SSE 3.5 mph - N/A   Clear
8:35 PM 87.8 °F 94.7 °F 72.5 °F 60% 29.75 in 10.0 mi SSE 8.1 mph - N/A   Clear
8:55 PM 86.7 °F 93.7 °F 72.7 °F 63% 29.76 in 10.0 mi South 15.0 mph 21.9 mph N/A   Clear
9:15 PM 85.5 °F 92.2 °F 73.0 °F 66% 29.76 in 10.0 mi South 13.8 mph 18.4 mph N/A   Clear
9:35 PM 84.4 °F 91.0 °F 73.4 °F 69% 29.78 in 10.0 mi South 11.5 mph 16.1 mph N/A   Clear
9:55 PM 83.5 °F 90.0 °F 73.8 °F 72% 29.79 in 10.0 mi South 10.4 mph - N/A   Clear
10:15 PM 82.9 °F 89.4 °F 73.9 °F 74% 29.79 in 10.0 mi South 11.5 mph - N/A   Clear
10:35 PM 82.4 °F 88.4 °F 73.9 °F 75% 29.80 in 10.0 mi South 11.5 mph - N/A   Clear
10:55 PM 81.7 °F 87.3 °F 73.9 °F 77% 29.80 in 10.0 mi South 11.5 mph - N/A   Clear
11:15 PM 81.1 °F 86.4 °F 73.8 °F 78% 29.81 in 10.0 mi South 11.5 mph - N/A   Clear
11:35 PM 80.6 °F 85.7 °F 74.3 °F 81% 29.81 in 10.0 mi South 11.5 mph - N/A   Clear
11:55 PM 80.2 °F 85.0 °F 74.3 °F 82% 29.81 in 10.0 mi South 11.5 mph - N/A   Clear